Flag for Austria Weather past 2 weeks in Kapfenberg, Styria, Austria

Now
63 °F

Broken clouds.


Feels Like: 63 °F
Forecast: 47 / 72 °F
Wind: 6 mph from West

Location: Zeltweg

Current Time: May 3, 2015 at 1:55:53 PM

Latest Report: May 3, 2015 at 12:50 PM


Visibility: 12 mi

Pressure: 29.86 "Hg

Humidity: 64%

Dew point: 50 °F

Location of KapfenbergLocation

Historic Weather in Kapfenberg — Graph

°F

Kapfenberg temperature yesterday

Maximum temperature yesterday: 64 °F (at 12:50 PM)
Minimum temperature yesterday: 46 °F (at 5:50 AM)
Average temperature yesterday: 57 °F

Past Weeks' High & Low Weather Summary

 TemperatureHumidityPressure
High70 °F (Apr 22, 3:50 PM)100% (Apr 20, 5:50 AM)30.24 "Hg (Apr 20, 5:50 AM)
Low27 °F (Apr 19, 6:50 AM)18% (Apr 22, 4:50 PM)29.56 "Hg (Apr 28, 5:50 AM)
Average53 °F57%29.98 "Hg
* Reported Apr 18 10:50 AM — May 3 10:50 AM, Kapfenberg, Weather by CustomWeather, © 2015

Note: Actual official high and low records may vary slightly from our data, if they occured in-between our weather recording intervals... More about our weather records

Advertising

Kapfenberg weather history for previous 24 hours

 ConditionsComfort  
Time TempWeatherWind HumidityBarometerVisibility
10:50 AM
Sun, May 3
55 °FPartly sunny.2 mph82%29.89 "Hg9 mi
9:50 AM52 °FLight rain. Broken clouds.3 mph100%29.89 "Hg9 mi
8:50 AM52 °FLight rain. Low clouds.5 mph88%29.89 "Hg9 mi
7:50 AM50 °FLight rain. Low clouds.5 mph94%29.89 "Hg6 mi
6:50 AM50 °FLight rain. Low clouds.1 mph94%29.89 "Hg9 mi
5:50 AM50 °FLow clouds.2 mph94%29.89 "Hg9 mi
4:50 AM50 °FSprinkles. Overcast.3 mph94%29.89 "Hg9 mi
10:50 PM
Sat, May 2
54 °FPassing clouds.2 mph72%29.92 "Hg9 mi
9:50 PM55 °FPassing clouds.2 mph63%29.92 "Hg9 mi
8:50 PM57 °FMore clouds than sun.8 mph59%29.92 "Hg12 mi
7:50 PM59 °FBroken clouds.9 mph55%29.89 "Hg19 mi
6:50 PM61 °FPartly sunny.13 mph52%29.86 "Hg19 mi
5:50 PM63 °FPartly sunny.6 mph49%29.86 "Hg19 mi
4:50 PM64 °FPartly sunny.6 mph43%29.83 "Hg19 mi
3:50 PM61 °FBroken clouds.12 mph52%29.86 "Hg12 mi
2:50 PM63 °FBroken clouds.7 mph42%29.83 "Hg12 mi
1:50 PM63 °FPartly sunny.14 mph42%29.83 "Hg12 mi
Weather by CustomWeather, © 2015

See weather overviewHow to use our weather pages